Terminal Aerodrome Forecast
Issued by NWS Salt Lake City, UT

Home | Current Version | Previous Version | Text Only | Print | Product List | Glossary On
Versions: 1 2 3 4 5 6 7 8 9 10 11 12 13 14 15 16 17 18 19 20
000
FTUS45 KSLC 211145
TAFCDC
TAF
KCDC 211145Z 2112/2212 21015KT P6SM SCT040 BKN110
     FM211500 21023G34KT P6SM SCT110 BKN200
     FM220300 19020KT P6SM SCT100 BKN200=

USA.gov is the U.S. government's official web portal to all federal, state and local government web resources and services.